Location: *
(57.8420°S, 159.8600°W)
Time: 04:12:30
(UTC+00:00)

NOAA 11 - Pass Details

Date: 18 May 2021
Orbit: 832 x 850 km, 98.4° (Epoch: 23 June)

Event Time Altitude Azimuth Distance (km) Brightness Sun altitude
Rises 04:47:58 0° 163° (SSE) 3,431 7.1 -18.1°
Reaches altitude 10° 04:50:24 10° 158° (SSE) 2,492 6.4 -18.4°
Maximum altitude 04:55:52 58° 79° (ENE) 989 4.2 -19.1°
Drops below altitude 10° 05:01:17 10° 359° (N) 2,476 6.7 -19.8°
Sets 05:03:41 0° 355° (N) 3,406 7.5 -20.2°
